Location: Utrecht
(52.0907°N, 5.1214°E)
Time: 16:02:20
(UTC+02:00)

ESTCUBE 1 - Pass Details

Date: 04 July 2022
Orbit: 646 x 657 km, 97.9° (Epoch: 08 August)

Event Time Altitude Azimuth Distance (km) Brightness Sun altitude
Exits shadow 00:29:42 11° 206° (SSW) 1,979 ? -13.3°
Maximum altitude 00:33:24 29° 266° (W) 1,185 ? -13.4°
Drops below altitude 10° 00:37:21 10° 327° (NNW) 2,064 ? -13.6°
Sets 00:39:49 0° 338° (NNW) 2,982 ? -13.7°
